OPS 4682 DEB, 38374

Orbit data source: Space-Track

OPS 4682 DEB, 38374 is space debris in LEO originally from a launch on Sat, 03 Apr 1965 UTC launched from the Air Force Western Test Range (AFWTR). Debris objects in space refer to the collection of defunct objects orbiting the Earth. Examples of debris include non-operational satellites, rocket bodies, and fragments generated from explosions, collisions, or faulty payload assembly.

Loading next visibility...
Identifier
38374, 1965-027CB
Orbit
LEO
Country
Flag of USUS
Related business
Manufacturer
Unknown
Mission
Spacecraft
Bus & Motor
Unknown
Mass
Unknown
Launch date (UTC)
1965-04-03 (61 years ago)
Launch vehicle
Unknown
Launch site
Air Force Western Test Range (AFWTR)
Object type
Payload
Rocket body
Debris
Shape & HBR
Unknown shape, 0.1 m
Radar Cross Section
Medium (>0.1 m² and <1 m²)

Expand to show TLE details & history
Last TLE update: 2 days ago

TLE from 2 days ago
0 OPS 4682 DEB
1 38374U 65027CB  26174.27668585 -.00000582  00000-0 -19212-2 0  9996
2 38374  90.2471  14.1630 0022933 198.2927 161.7374 13.01338390613428
Epoch: 2026-06-23T06:38Z
TLE epoch observation values (Epoch: 2026-06-23T06:38:25.657Z)
Latitude
0.00004°
Longitude
3.10553°
Altitude
1,276.367 km
Speed
7.21 km/s
True Right ascension
00h 56m 39s
True Declination
0° 00' 00"
Sunlit
Object was in daylight at epoch
Visualization orbit readout
Latitude
Unknown
Longitude
Unknown
Altitude
Unknown
Speed
Unknown
Apparent Right ascension
Unknown
Apparent Declination
Unknown
Sunlit
N/A
Visualization observer readout
Local Sidereal Time
12:01:52
Azimuth
Unknown
Elevation
Unknown
Doppler factor
Unknown
Orbital elements
Apogee altitude
1,271.475 km
Perigee altitude
1,236.47 km
Semi-major axis
7,632.109 km
Eccentricity
0.00229
Inclination
90.2471°
RAAN
14.163°
Arg. of periapsis
198.2927°
True anomaly
161.81953°
Mean anomaly
161.7374°
Eccentric anomaly
161.77849°
Mean motion
3.25519 °/min
Orbital period
110.59 mins
BSTAR
-0.0019212
Loading maneuver chart data...
Computing Atmospheric mass density...
Loading historical data...
Loading historical data...
Loading historical data...
Loading historical data...
Loading historical data...
Loading historical data...
Loading historical data...

Documentation

Showing up to 5 results
|